TITAN 3C TRANSTAGE DEB, 1716

Orbit data source: Space-Track

TITAN 3C TRANSTAGE DEB, 1716 is space debris in LEO originally from a launch on Fri, 15 Oct 1965 UTC launched from the Air Force Eastern Test Range (AFETR). Debris objects in space refer to the collection of defunct objects orbiting the Earth. Examples of debris include non-operational satellites, rocket bodies, and fragments generated from explosions, collisions, or faulty payload assembly.

Loading next visibility...
Identifier
1716, 1965-082BX
Orbit
LEO
Country
Flag of USUS
Related business
Manufacturer
Unknown
Mission
Spacecraft
Bus & Motor
Unknown
Mass
Unknown
Launch date (UTC)
1965-10-15 (61 years ago)
Launch vehicle
Unknown
Launch site
Air Force Eastern Test Range (AFETR)
Object type
Payload
Rocket body
Debris
Shape & HBR
Unknown shape, 0.9 m
Radar Cross Section
Large (>1 m²)

Expand to show TLE details & history
Last TLE update: 7 hours ago

TLE from 7 hours ago
0 TITAN 3C TRANSTAGE DEB
1  1716U 65082BX  26166.10550022  .00000437  00000-0  85686-4 0  9993
2  1716  32.1912 320.2942 0038372 299.6360  60.0466 14.57586408208195
Epoch: 2026-06-15T02:31Z
TLE epoch observation values (Epoch: 2026-06-15T02:31:55.219Z)
Latitude
-0.00004°
Longitude
18.91741°
Altitude
686.156 km
Speed
7.523 km/s
True Right ascension
21h 21m 10s
True Declination
0° 00' 00"
Sunlit
Object was in full shadow at epoch
Visualization orbit readout
Latitude
Unknown
Longitude
Unknown
Altitude
Unknown
Speed
Unknown
Apparent Right ascension
Unknown
Apparent Declination
Unknown
Sunlit
N/A
Visualization observer readout
Local Sidereal Time
20:34:13
Azimuth
Unknown
Elevation
Unknown
Doppler factor
Unknown
Orbital elements
Apogee altitude
731.734 km
Perigee altitude
677.379 km
Semi-major axis
7,082.694 km
Eccentricity
0.00384
Inclination
32.1912°
RAAN
320.2942°
Arg. of periapsis
299.636°
True anomaly
60.42849°
Mean anomaly
60.0466°
Eccentric anomaly
60.23745°
Mean motion
3.64121 °/min
Orbital period
98.87 mins
BSTAR
0.000085686

Documentation

Showing up to 5 results
|